Погода в Доваторовке

Россия / Калининградская область     54°39′09″N   21°44′10″E
темп.,
°C
ветер,
м/с
пор.,
м/с
влажн.,
%
обл.,
%
осадки,
мм/ч
давл.,
гПа
погр.,
м
8 мая, сб
сб823:00+2з3797100 0.0 1009161
02:00+3зсз4783100 0.0 1010701
05:00+3з247894 0.1 1012139
08:00+6з45736 0.1 1014744
11:00+9з465698 0.0 10141836
14:00+10зсз576599 1.0 10151587
17:00+9зсз577528 1.3 10161178
20:00+5зсз36915 1.8 1017135
9 мая, вс
вс923:00+2зюз33960 0.0 101951
02:00+1юз34965 0.0 102065
05:00+1ююз359388 0.0 102068
08:00+6ю488168 0.0 1020311
11:00+12ю685981 0.0 10191279
14:00+14ю71061100 0.0 10181791
17:00+12ю6147085 0.0 1017667
20:00+11ю51280100 0.0 1017327
10 мая, пн
пн1023:00+10ю5148427 0.0 1018290
02:00+10ю5157950 0.0 1018328
05:00+8ююв51387100 0.0 1018264
08:00+13ю61378100 0.0 1018437
11:00+17ююв711655 0.0 1018772
14:00+20ююв7116368 0.0 10171091
17:00+19ююв8136863 0.0 10161045
20:00+16ююв6147635 0.0 1017472
11 мая, вт
вт1123:00+15ююв7167557 0.0 1017540
02:00+13ююв614816 0.0 1017435
05:00+12юв715836 0.0 1017375
08:00+14ююв715785 0.0 1017533
11:00+18ююв814686 0.0 1016853
14:00+21ююв814674 0.0 10151137
17:00+20ююв814660 0.0 10151038
20:00+16юв613740 0.0 1015395
12 мая, ср
ср1223:00+15юв716700 0.0 1016584
02:00+13юв7166455 0.0 1016522
05:00+11юв514731 0.0 1016388
08:00+14юв614720 0.0 1016607
11:00+19юв712635 0.0 10151030
14:00+22юв7116128 0.0 10151544
17:00+21вюв611686 0.0 10151475
20:00+16вюв411826 0.1 1015303